This is the latest recevied weather packets stored in our database for station/object G7UKK-10. If no packets are shown the sender has not sent any weather packets the latest 1 day(s).
| Time | Temp. | Humidity | Pressure | Rain* | Wind** | Luminosity | Snow |
|---|---|---|---|---|---|---|---|
| 1836274674 | 16.11° C | 88% | 1017 hPa | 0 mm | 0.89 m/s, 230° | 0 W/m² | - |
| 1778060417 | 8.89° C | 69% | 1017.3 hPa | 0 mm | 0.45 m/s, 83° | - | - |
| 1778059517 | 7.78° C | 71% | 1017.7 hPa | 0 mm | 0.89 m/s, 60° | - | - |
| 1778058617 | 7.78° C | 73% | 1017.4 hPa | 0 mm | 0.89 m/s, 72° | - | - |
| 1778057717 | 8.33° C | 71% | 1017.4 hPa | 0 mm | 0.89 m/s, 36° | - | - |
| 1778056817 | 7.22° C | 75% | 1017.3 hPa | 0 mm | 1.34 m/s, 27° | - | - |
| 1778055917 | 7.22° C | 75% | 1017.4 hPa | 0 mm | 0.89 m/s, 84° | - | - |
| 1778055017 | 7.78° C | 74% | 1017.5 hPa | 0 mm | 1.79 m/s, 35° | - | - |
| 1778054117 | 7.22° C | 76% | 1017.3 hPa | 0 mm | 0.89 m/s, 82° | - | - |
| 1778053217 | 6.11° C | 78% | 1017.3 hPa | 0 mm | 0.45 m/s, 70° | - | - |
| 1778052317 | 6.67° C | 77% | 1017.5 hPa | 0 mm | 0.45 m/s, 81° | - | - |
| 1778051417 | 6.67° C | 78% | 1017.3 hPa | 0 mm | 0.89 m/s, 3° | - | - |
| 1778050517 | 6.11° C | 78% | 1017.3 hPa | 0 mm | 0.45 m/s, 100° | - | - |
| 1778049617 | 5.56° C | 78% | 1017.2 hPa | 0 mm | 0.89 m/s, 94° | - | - |
| 1778048717 | 5.56° C | 79% | 1017.3 hPa | 0 mm | 0.89 m/s, 89° | - | - |
| 1778047817 | 4.44° C | 80% | 1017.2 hPa | 0 mm | 1.34 m/s, 351° | - | - |
| 1778046917 | 3.89° C | 82% | 1017.3 hPa | 0 mm | 1.34 m/s, 7° | - | - |
| 1778046017 | 3.33° C | 83% | 1017.3 hPa | 0 mm | 0.89 m/s, 33° | - | - |
| 1778045117 | 3.33° C | 83% | 1017.3 hPa | 0 mm | 0.89 m/s, 37° | - | - |
| 1778044217 | 2.78° C | 84% | 1017.1 hPa | 0 mm | 0.89 m/s, 354° | - | - |
| 1778043317 | 2.78° C | 84% | 1017.3 hPa | 0 mm | 1.34 m/s, 21° | - | - |
| 1778042417 | 3.33° C | 84% | 1017.1 hPa | 0 mm | 1.79 m/s, 360° | - | - |
| 1778041517 | 3.33° C | 85% | 1017.2 hPa | 0 mm | 1.79 m/s, 7° | - | - |
| 1778040617 | 3.33° C | 85% | 1017 hPa | 0 mm | 1.34 m/s, 15° | - | - |
| 1778039717 | 3.33° C | 86% | 1017.2 hPa | 0 mm | 0.89 m/s, 117° | - | - |
* Rain latest hour (hover to see other rain measurements)
** Current wind speed in m/s (hover to see current wind gust speed)